Lexington Weather

Lexington, Massachusetts, USA

36°F
1/28/2020 5:44am 
  • Lexington Conditions: Overcast
  • Temperature: 36.3°F / 2.4°CWarmer 0.3°F than last hour.
  • Dew Point: 29.8°FIncreased 0.3°Fsince last hour.
  • Relative Humidity: 77
  • Wind: Wind from NW NW 1 mph, 10-min avg: 2 mph, gust: 5 mph
  • Barometer: 29.64 inRising 0.02  inHg/hr Rising Slowly
  • Visibility: 10 miles
  • Rain Today: 0.00 in
  •   

Regional Weather Roundup
for Boston / Norton, MA

        
000
ASUS41 KBOX 252110
RWRBOX

REGIONAL WEATHER ROUNDUP
NATIONAL WEATHER SERVICE BOSTON/NORTON MA
400 PM EST SAT JAN 25 2020

NOTE:  "FAIR" INDICATES FEW OR NO CLOUDS BELOW 12,000 FEET WITH NO 
SIGNIFICANT WEATHER AND/OR OBSTRUCTIONS TO VISIBILITY.

MAZALL-252200-
EASTERN MASSACHUSETTS
  
CITY           SKY/WX    TMP DP  RH WIND       PRES   REMARKS
BOSTON         CLOUDY    44  39  82 E21       30.03F                  
BEVERLY        CLOUDY    43  38  82 E14G22    30.04F                  
LAWRENCE       CLOUDY    41  37  86 E12G20    30.06F                  
BEDFORD        CLOUDY    43  38  82 E21G29    30.00F                  
BLUE HILL        N/A     41  40  96 E21G29    29.97F WCI  32          
NORWOOD        CLOUDY    47  40  76 E13       29.99F                  
MARSHFIELD     CLOUDY    45  43  93 E16       30.01F FOG              
PLYMOUTH       CLOUDY    45  41  86 E14       30.00F                  
TAUNTON        CLOUDY    44  41  89 E9        29.97F                  
NEW BEDFORD    CLOUDY    47  42  83 E14       29.97F                  
$$

MAZALL-252200-
CAPE COD AND THE ISLANDS
  
CITY           SKY/WX    TMP DP  RH WIND       PRES   REMARKS
FALMOUTH       CLOUDY    46  43  87 E20G29    29.98F                  
HYANNIS        LGT RAIN  48  42  80 E15G30    29.98F                  
CHATHAM        LGT RAIN  46  43  89 E13       30.04F                  
PROVINCETOWN   CLOUDY    46  43  89 E16G24    30.04F                  
NANTUCKET      CLOUDY    47  43  86 E18G30    29.99F                  
MARTHAS VNYRD  CLOUDY    45  42  89 E14G22    29.98F                  
$$
 
MAZALL-252200-
CENTRAL AND WESTERN MASSACHUSETTS
  
CITY           SKY/WX    TMP DP  RH WIND       PRES   REMARKS
WORCESTER      FOG       38  37  97 E14G26    29.95F VSB<1/4 WCI  30  
FITCHBURG      CLOUDY    38  36  92 VRB5      30.01F FOG              
ORANGE         LGT RAIN  39  36  89 VRB6      29.95F FOG              
SPRINGFIELD    NOT AVBL                                               
WESTFIELD      CLOUDY    40  38  93 N8        29.90F FOG              
NORTH ADAMS    LGT RAIN  38  33  82 E18       29.86F WCI  28          
PITTSFIELD     LGT RAIN  38  34  85 NE13G22   29.81F WCI  30          
$$
 
RIZALL-252200-
RHODE ISLAND
  
CITY           SKY/WX    TMP DP  RH WIND       PRES   REMARKS
PROVIDENCE     CLOUDY    45  41  86 NE13      29.95F                  
NEWPORT        LGT RAIN  46  41  82 E20G31    29.93F                  
BLOCK ISLAND   LGT RAIN  44  43  96 E21G28    29.90F FOG              
SMITHFIELD     CLOUDY    42  41  96 E13G18    29.96F                  
WESTERLY       LGT RAIN  47  42  83 E21G35    29.90F                  
$$
 
CTZALL-252200-
CONNECTICUT
  
CITY           SKY/WX    TMP DP  RH WIND       PRES   REMARKS
BRADLEY INTL   LGT RAIN  43  39  86 NE9       29.88F                  
HARTFORD       LGT RAIN  45  41  86 VRB5      29.86F FOG              
BRIDGEPORT     RAIN      43  42  97 E24       29.79F FOG              
DANBURY        RAIN      43  42  97 NE8       29.79F FOG              
GROTON         LGT RAIN  45  44  97 E29G39    29.86F FOG              
NEW HAVEN      LGT RAIN  46  44  93 E22G36    29.81F FOG              
CHESTER        NOT AVBL                                               
MERIDEN        RAIN      45  43  93 E9        29.82F FOG              
WILLIMANTIC    LGT RAIN  44  42  93 E8G21     29.90F FOG              
OXFORD         LGT RAIN  41  41 100 NE10      29.81F VSB 1            
$$

MEZ002-015-021-024-NHZ003-005-008-011-012-014-VTZ005-008-252200-
NORTHERN NEW ENGLAND
  
CITY           SKY/WX    TMP DP  RH WIND       PRES   REMARKS
PORTLAND ME    CLOUDY    39  34  82 E16       30.17F WCI  30          
BANGOR ME      CLOUDY    36  30  79 E7        30.24F WCI  30          
CONCORD NH     CLOUDY    37  34  89 E13       30.05F WCI  29          
MANCHESTER NH  CLOUDY    40  37  89 E12       30.04F                  
NASHUA NH      CLOUDY    39  39 100 E9G20     30.04F FOG              
PORTSMOUTH NH  CLOUDY    40  37  90 E17G25    30.08F WCI  31          
JAFFREY NH     FOG       36  34  92 VRB6G17   29.97F VSB 1/2 WCI  31  
KEENE NH       RAIN      37  35  92 NW9       29.95F FOG     WCI  30  
BURLINGTON VT  LGT RAIN  38  31  76 E6        29.97F                  
MT. WASHINGTON BLWGSNOW  21  21 100 SE55        N/A  VSB 1/16WCI  -2  
$$

NYZ052-076-252200-
EASTERN NEW YORK
  
CITY           SKY/WX    TMP DP  RH WIND       PRES   REMARKS
ALBANY         LGT RAIN  38  34  85 NW3       29.86F FOG              
NEW YORK CITY  LGT RAIN  51  47  86 SE10      29.74F                  
$$
 
ANZALL-252200-
MARINE OBSERVATIONS
  
STATION/POSITION TIME  TEMP    WIND        PRES    VSBY  WAVE
                       AIR SEA DIR/SP/G                  HT/PER
                 (UTC) (F)     (DEG/KT/KT) (MB)    (MI)  (FT/S)
BOSTON BUOY      1950   44 43   80/ 16/ 19 1018.4          4/10
BUZZARDS BAY     2000   43      80/ 25/ 27 1015.6F
NANTUCKET SOUND  NOT AVBL
MASS BAY-STELLWA 2004   43 41  110/ 17/ 19 1017.4F  1 7/8  7/ 6
ISLE OF SHOALS   2000   42      80/ 23/ 26 1019.2F
S OF BLOCK IS    2030      45                N/A           7/10
$$

......................KEY.........................
  SKY/WX - SKY CONDITION/PRESENT WEATHER
  TMP    - TEMPERATURE IN FAHRENHEIT
  DWPT   - DEWPOINT IN FAHRENHEIT
  RH     - RELATIVE HUMIDITY IN PERCENT
  WIND   - DIRECTION AND SPEED IN MPH
  PRES   - MEAN SEA LEVEL PRESSURE IN INCHES OF HG
  WCI    - WIND CHILL INDEX
  VSB    - VISIBILITY IN MILES
  HX     - HEAT INDEX
  TC     - TEMPERATURE IN CELSIUS
  VRB    - VARIABLE WIND DIRECTION
  N/A    - NOT AVAILABLE
  
      

Other recent Regional Weather Roundups

Tue Jan 28, 5:10am

Tue Jan 28, 5:00am

Tue Jan 28, 4:10am

Tue Jan 28, 4:00am

Tue Jan 28, 3:10am

Tue Jan 28, 3:01am

Tue Jan 28, 2:10am

Tue Jan 28, 2:00am

Tue Jan 28, 1:10am

Tue Jan 28, 1:00am

Tue Jan 28, 12:10am

Tue Jan 28, 12:01am

Mon Jan 27, 11:10pm

Mon Jan 27, 11:00pm

Mon Jan 27, 10:10pm

Mon Jan 27, 10:00pm

Mon Jan 27, 9:10pm

Mon Jan 27, 9:00pm

Mon Jan 27, 8:10pm

Mon Jan 27, 8:01pm

Mon Jan 27, 7:10pm

Mon Jan 27, 7:00pm

Mon Jan 27, 6:10pm

Mon Jan 27, 6:00pm

Mon Jan 27, 5:10pm

Mon Jan 27, 5:00pm

Mon Jan 27, 4:10pm

Mon Jan 27, 4:00pm

Mon Jan 27, 3:10pm

Mon Jan 27, 3:00pm

Mon Jan 27, 2:10pm

Mon Jan 27, 2:00pm

Mon Jan 27, 1:10pm

Mon Jan 27, 1:00pm

Mon Jan 27, 12:10pm

Mon Jan 27, 12:00pm

Mon Jan 27, 11:10am

Mon Jan 27, 11:01am

Mon Jan 27, 10:10am

Mon Jan 27, 10:00am

Mon Jan 27, 9:10am

Mon Jan 27, 9:00am

Mon Jan 27, 8:10am

Mon Jan 27, 8:00am

Mon Jan 27, 7:10am

Mon Jan 27, 7:00am

Mon Jan 27, 6:10am

Mon Jan 27, 6:00am

Mon Jan 27, 5:10am

Mon Jan 27, 5:00am

Mon Jan 27, 4:10am

Mon Jan 27, 4:01am

Mon Jan 27, 3:10am

Mon Jan 27, 3:00am

Mon Jan 27, 2:10am

Mon Jan 27, 2:00am

Mon Jan 27, 1:10am

Mon Jan 27, 1:00am

Mon Jan 27, 12:10am

Mon Jan 27, 12:00am

Sun Jan 26, 11:10pm

Sun Jan 26, 11:00pm

Sun Jan 26, 10:10pm

Sun Jan 26, 10:00pm

Sun Jan 26, 9:10pm

Sun Jan 26, 9:01pm

Sun Jan 26, 8:10pm

Sun Jan 26, 8:00pm

Sun Jan 26, 7:10pm

Sun Jan 26, 7:00pm

Sun Jan 26, 6:10pm

Sun Jan 26, 6:01pm

Sun Jan 26, 5:10pm

Sun Jan 26, 5:01pm

Sun Jan 26, 4:10pm

Sun Jan 26, 4:00pm

Sun Jan 26, 3:10pm

Sun Jan 26, 3:01pm

Sun Jan 26, 2:10pm

Sun Jan 26, 2:01pm

Sun Jan 26, 1:10pm

Sun Jan 26, 1:00pm

Sun Jan 26, 12:10pm

Sun Jan 26, 12:00pm

Sun Jan 26, 11:10am

Sun Jan 26, 11:01am

Sun Jan 26, 10:10am

Sun Jan 26, 10:01am

Sun Jan 26, 9:10am

Sun Jan 26, 9:00am

Sun Jan 26, 8:10am

Sun Jan 26, 8:00am

Sun Jan 26, 7:10am

Sun Jan 26, 7:00am

Sun Jan 26, 6:10am

Sun Jan 26, 6:00am

Sun Jan 26, 5:10am

Sun Jan 26, 5:00am

Sun Jan 26, 4:10am

Sun Jan 26, 4:01am

Sun Jan 26, 3:10am

Sun Jan 26, 3:01am

Sun Jan 26, 2:10am

Sun Jan 26, 2:00am

Sun Jan 26, 1:10am

Sun Jan 26, 1:00am

Sun Jan 26, 12:10am

Sun Jan 26, 12:00am

Sat Jan 25, 11:10pm

Sat Jan 25, 11:00pm

Sat Jan 25, 10:10pm

Sat Jan 25, 10:01pm

Sat Jan 25, 9:10pm

Sat Jan 25, 9:01pm

Sat Jan 25, 8:10pm

Sat Jan 25, 8:01pm

Sat Jan 25, 7:10pm

Sat Jan 25, 7:01pm

Sat Jan 25, 6:10pm

Sat Jan 25, 6:01pm

Sat Jan 25, 5:10pm

Sat Jan 25, 5:01pm

Sat Jan 25, 4:00pm

Sat Jan 25, 3:10pm

Sat Jan 25, 3:01pm

Sat Jan 25, 2:10pm

Sat Jan 25, 2:00pm

Sat Jan 25, 1:10pm

Sat Jan 25, 1:00pm

Sat Jan 25, 12:10pm

Sat Jan 25, 12:00pm

Sat Jan 25, 11:10am

Sat Jan 25, 11:00am

Sat Jan 25, 10:10am

Sat Jan 25, 10:00am

Sat Jan 25, 9:10am

Sat Jan 25, 9:00am

Sat Jan 25, 8:10am

Sat Jan 25, 8:01am

Sat Jan 25, 7:10am

Sat Jan 25, 7:00am

Sat Jan 25, 6:10am

Sat Jan 25, 6:00am

Meta data:

ID: a6bf272f-8a71-4353-90ca-d0575de4a11a
Link: https://api.weather.gov/products/a6bf272f-8a71-4353-90ca-d0575de4a11a